Date,TemperatureHighF,TemperatureAvgF,TemperatureLowF,DewpointHighF,DewpointAvgF,DewpointLowF,HumidityHigh,HumidityAvg,HumidityLow,PressureMaxIn,PressureMinIn,WindSpeedMaxMPH,WindSpeedAvgMPH,GustSpeedMaxMPH,PrecipitationSumIn
2013-3-1,50,45,42,-100,-100,-100,0,0,100,0.00,40.00,0,-999,0,0.09
2013-3-2,48,42,36,-100,-100,-100,0,0,100,0.00,40.00,0,-999,0,0.10
2013-3-3,43,35,30,-100,-100,-100,0,0,100,0.00,40.00,0,-999,0,0.07
2013-3-4,46,34,25,-100,-100,-100,0,0,100,0.00,40.00,0,-999,0,0.00
2013-3-5,44,38,31,-100,-100,-100,0,0,100,0.00,40.00,0,-999,0,0.00
2013-3-6,38,36,34,-100,-100,-100,0,0,100,0.00,40.00,0,-999,0,0.34
2013-3-7,44,37,31,-100,-100,-100,0,0,100,0.00,40.00,0,-999,0,0.11
2013-3-8,50,34,27,-100,-100,-100,0,0,100,0.00,40.00,0,-999,0,0.02
2013-3-9,54,37,27,-100,-100,-100,0,0,100,0.00,40.00,0,-999,0,0.00
2013-3-10,42,36,30,-100,-100,-100,0,0,100,0.00,40.00,0,-999,0,0.06
2013-3-11,47,42,39,-100,-100,-100,0,0,100,0.00,40.00,0,-999,0,0.09
2013-3-12,47,44,41,-100,-100,-100,0,0,100,0.00,40.00,0,-999,0,0.27
2013-3-13,48,45,43,-100,-100,-100,0,0,100,0.00,40.00,0,-999,0,0.29
2013-3-14,56,45,42,-100,-100,-100,0,0,100,0.00,40.00,0,-999,0,0.03
2013-3-15,54,46,41,-100,-100,-100,0,0,100,0.00,40.00,0,-999,0,0.03
2013-3-16,44,40,34,-100,-100,-100,0,0,100,0.00,40.00,0,-999,0,0.39
2013-3-17,38,34,32,-100,-100,-100,0,0,100,0.00,40.00,0,-999,0,0.15
2013-3-18,44,36,31,-100,-100,-100,0,0,100,0.00,40.00,0,-999,0,0.15
2013-3-19,45,36,30,-100,-100,-100,0,0,100,0.00,40.00,0,-999,0,0.20
2013-3-20,44,40,33,-100,-100,-100,0,0,100,0.00,40.00,0,-999,0,0.85
2013-3-21,36,33,32,-100,-100,-100,0,0,100,0.00,40.00,0,-999,0,0.85
2013-3-22,39,33,31,-100,-100,-100,0,0,100,0.00,40.00,0,-999,0,0.17
2013-3-23,47,34,29,-100,-100,-100,0,0,100,0.00,40.00,0,-999,0,0.04
2013-3-24,46,35,27,-100,-100,-100,0,0,100,0.00,40.00,0,-999,0,0.01
2013-3-25,57,41,29,-100,-100,-100,0,0,100,0.00,40.00,0,-999,0,0.00
2013-3-26,55,45,38,-100,-100,-100,0,0,100,0.00,40.00,0,-999,0,0.00
2013-3-27,55,45,39,-100,-100,-100,0,0,100,0.00,40.00,0,-999,0,0.01
2013-3-28,53,45,40,-100,-100,-100,0,0,100,0.00,40.00,0,-999,0,0.04
2013-3-29,61,47,39,-100,-100,-100,0,0,100,0.00,40.00,0,-999,0,0.01
2013-3-30,69,47,31,-100,-100,-100,0,0,100,0.00,40.00,0,-999,0,0.00
2013-3-31,72,51,32,-100,-100,-100,0,0,100,0.00,40.00,0,-999,0,0.00